Providence, RI

2:03 PM EST on December 16, 2017 (GMT -0500)
Green State

Weather History for KPVD - October, 2012

Change the Weather History Date:

Sunday, October 7, 2012

  Actual Average Record
Temperature  
Mean Temperature 52 °F 57 °F  
Max Temperature 59 °F 66 °F 86 °F (1963)
Min Temperature 44 °F 47 °F 30 °F (1984)
Degree Days  
Heating Degree Days 13 9  
Month to date heating degree days 24 56  
Since 1 July heating degree days 100 153  
Cooling Degree Days 0 0  
Month to date cooling degree days 1 6  
Year to date cooling degree days 831 742  
Growing Degree Days 2 (Base 50)    
Moisture  
Dew Point 43 °F    
Average Humidity 68    
Maximum Humidity 89    
Minimum Humidity 47    
Precipitation  
Precipitation 0.19 in 0.12 in 2.54 in (1956)
Month to date precipitation 0.81 0.89  
Year to date precipitation 31.91 35.41  
Snow  
Snow 0.00 in 0.00 in 0.00 in (2009)
Month to date snowfall 0.0 0.0  
Since 1 July snowfall 0.0 0.0  
Since 1 September snowfall 0.0 0.0  
Snow Depth 0.00 in    
Sea Level Pressure  
Sea Level Pressure 30.04 in    
Wind  
Wind Speed 4 mph (WNW)    
Max Wind Speed 10 mph    
Max Gust Speed 14 mph    
Visibility 9 miles    
Events Rain    
T = Trace of Precipitation, MM = Missing Value Source: NWS Daily Summary

Daily Weather History Graph

Daily Weather History Graph

Search for Another Location

Airport or City:

Trip Planner

Search our weather history database for the weather conditions in past years. The results will help you decide how hot, cold, wet, or windy it might be!

Date:

Astronomy

Oct. 07, 2012 Rise Set
Actual Time 6:49 AM EDT 6:16 PM EDT
Civil Twilight 6:21 AM EDT 6:44 PM EDT
Nautical Twilight 5:49 AM EDT 7:16 PM EDT
Astronomical Twilight 5:17 AM EDT 7:48 PM EDT
Moon 11:21 PM EDT (10/7) 1:28 PM EDT (10/7)
Length of Visible Light 12h 22m
Length of Day
11h 27m
Waning Gibbous, 56% of the Moon is Illuminated
Oct 7
Waning Gibbous
Oct 8
Last Quarter
Oct 15
New
Oct 21
First Quarter
Oct 29
Full

Hourly Weather History & Observations

Time (EDT) Temp. Windchill Dew Point Humidity Pressure Visibility Wind Dir Wind Speed Gust Speed Precip Events Conditions
12:51 AM 51.1 °F - 46.0 °F 83% 29.97 in 10.0 mi Calm Calm - N/A   Partly Cloudy
1:51 AM 50.0 °F - 42.1 °F 74% 29.99 in 10.0 mi WNW 5.8 mph - N/A   Partly Cloudy
2:51 AM 48.2 °F - 41.0 °F 76% 29.99 in 10.0 mi WNW 4.6 mph - N/A   Clear
3:51 AM 46.9 °F - 41.0 °F 80% 30.00 in 10.0 mi WNW 3.5 mph - N/A   Partly Cloudy
4:51 AM 46.0 °F 44.8 °F 42.1 °F 86% 30.01 in 10.0 mi West 3.5 mph - N/A   Scattered Clouds
5:51 AM 45.0 °F 41.8 °F 41.0 °F 86% 30.04 in 10.0 mi West 5.8 mph - N/A   Scattered Clouds
6:51 AM 45.0 °F 41.8 °F 41.0 °F 86% 30.05 in 10.0 mi WNW 5.8 mph - N/A   Scattered Clouds
7:51 AM 46.9 °F - 39.9 °F 77% 30.07 in 10.0 mi West 5.8 mph - N/A   Scattered Clouds
8:51 AM 52.0 °F - 39.9 °F 63% 30.09 in 10.0 mi WNW 6.9 mph - N/A   Scattered Clouds
9:51 AM 54.0 °F - 39.9 °F 59% 30.08 in 10.0 mi North 4.6 mph - N/A   Scattered Clouds
10:51 AM 57.0 °F - 37.9 °F 49% 30.07 in 10.0 mi Variable 3.5 mph - N/A   Mostly Cloudy
11:51 AM 57.0 °F - 37.9 °F 49% 30.07 in 10.0 mi North 4.6 mph - N/A   Mostly Cloudy
12:51 PM 57.9 °F - 37.9 °F 47% 30.07 in 10.0 mi Calm Calm - N/A   Mostly Cloudy
1:51 PM 57.0 °F - 41.0 °F 55% 30.06 in 10.0 mi Calm Calm - N/A   Overcast
2:51 PM 54.0 °F - 44.1 °F 69% 30.06 in 10.0 mi WNW 4.6 mph - 0.01 in Rain Light Rain
3:51 PM 52.0 °F - 46.9 °F 83% 30.05 in 5.0 mi WNW 3.5 mph - 0.05 in Rain Rain
4:51 PM 51.1 °F - 46.9 °F 86% 30.04 in 10.0 mi West 4.6 mph - 0.05 in Rain Light Rain
5:51 PM 51.1 °F - 46.9 °F 86% 30.05 in 10.0 mi West 3.5 mph - 0.01 in   Overcast
6:51 PM 51.1 °F - 46.0 °F 83% 30.04 in 10.0 mi Calm Calm - N/A   Overcast
7:51 PM 51.1 °F - 48.9 °F 92% 30.03 in 10.0 mi Calm Calm - N/A   Overcast
8:51 PM 51.1 °F - 46.9 °F 86% 30.03 in 10.0 mi West 3.5 mph - N/A   Overcast
9:36 PM 50.0 °F - 46.4 °F 87% 30.05 in 6.0 mi West 6.9 mph - N/A Rain Light Rain
9:51 PM 48.9 °F - 46.0 °F 90% 30.06 in 6.0 mi West 5.8 mph - 0.02 in Rain Light Rain
10:39 PM 48.2 °F - 44.6 °F 87% 30.07 in 10.0 mi West 4.6 mph - 0.02 in Rain Light Rain
10:51 PM 48.0 °F - 44.1 °F 86% 30.07 in 7.0 mi West 3.5 mph - 0.03 in Rain Light Rain
11:51 PM 48.0 °F - 45.0 °F 89% 30.08 in 10.0 mi WNW 8.1 mph - 0.00 in Rain Light Rain